EW7774 Weather Reports


Display with metric or nautical units.
time (UTC)temp
F
wind
direction
speed
MPH
gust
MPH
rain 1hr
in
rain 24hr
in
rain mn
in
humidity
%
barometer
mb
20260901170833 90 279 0.0 3.0 0.00 0.00 0.00 70 1015.6
20260901170528 90 224 0.0 4.0 0.00 0.00 0.00 64 1016.1
20260901170324 90 270 0.0 4.0 0.00 0.00 0.00 65 1015.6
20260901170044 90 0 0.0 5.0 0.00 0.00 0.00 64 1016.2
20260901165839 90 213 1.0 5.0 0.00 0.00 0.00 65 1015.8
20260901165525 90 0 0.0 8.0 0.00 0.00 0.00 67 1016.2
20260901165333 90 13 2.0 8.0 0.00 0.00 0.00 68 1015.9
20260901165031 90 0 1.0 8.0 0.00 0.00 0.00 65 1016.3
20260901164826 90 189 0.0 2.0 0.00 0.00 0.00 67 1015.9
20260901164556 89 228 0.0 5.0 0.00 0.00 0.00 67 1016.4
20260901164326 90 202 0.0 4.0 0.00 0.00 0.00 69 1015.9
20260901164028 89 0 0.0 5.0 0.00 0.00 0.00 70 1016.5
20260901163816 89 269 0.0 5.0 0.00 0.00 0.00 70 1016.0
20260901163531 88 0 0.0 5.0 0.00 0.00 0.00 72 1016.6
20260901163333 88 177 0.0 2.0 0.00 0.00 0.00 71 1016.1
20260901163051 88 0 0.0 2.0 0.00 0.00 0.00 71 1016.5
20260901162825 88 180 0.0 2.0 0.00 0.00 0.00 70 1016.1
20260901162525 87 0 0.0 4.0 0.00 0.00 0.00 70 1016.6
20260901162319 88 253 0.0 4.0 0.00 0.00 0.00 70 1016.1
20260901162024 87 0 0.0 4.0 0.00 0.00 0.00 70 1016.6
20260901161832 88 216 0.0 4.0 0.00 0.00 0.00 70 1016.2
20260901161602 88 0 0.0 4.0 0.00 0.00 0.00 68 1016.8
20260901161324 88 262 0.0 2.0 0.00 0.00 0.00 69 1016.3
20260901161027 88 0 0.0 6.0 0.00 0.00 0.00 68 1016.8
20260901160853 89 256 0.0 5.0 0.00 0.00 0.00 69 1016.3
20260901160528 88 0 1.0 6.0 0.00 0.00 0.00 67 1016.7
20260901160323 89 181 2.0 6.0 0.00 0.00 0.00 67 1016.4
20260901160104 88 0 1.0 6.0 0.00 0.00 0.00 67 1016.8
20260901155833 89 313 2.0 6.0 0.00 0.00 0.00 68 1016.4
20260901155524 88 273 1.0 5.0 0.00 0.00 0.00 70 1017.0
20260901155326 89 275 1.0 5.0 0.00 0.00 0.00 69 1016.5
20260901155030 88 0 0.0 4.0 0.00 0.00 0.00 71 1017.0
20260901154818 88 50 0.0 5.0 0.00 0.00 0.00 70 1016.5
20260901154543 87 0 0.0 5.0 0.00 0.00 0.00 69 1017.0
20260901154334 87 349 1.0 5.0 0.00 0.00 0.00 74 1016.5
20260901154028 87 0 1.0 6.0 0.00 0.00 0.00 73 1017.1
20260901153826 87 1 2.0 5.0 0.00 0.00 0.00 73 1016.5
20260901153531 86 0 0.0 6.0 0.00 0.00 0.00 70 1017.1
20260901153321 87 208 0.0 6.0 0.00 0.00 0.00 71 1016.6
20260901153107 86 0 0.0 6.0 0.00 0.00 0.00 70 1017.2
20260901152836 86 199 0.0 3.0 0.00 0.00 0.00 72 1016.8
20260901152524 85 306 0.0 3.0 0.00 0.00 0.00 72 1017.3
20260901152327 86 206 0.0 3.0 0.00 0.00 0.00 73 1016.9
20260901152028 85 0 0.0 3.0 0.00 0.00 0.00 73 1017.4
20260901151820 85 205 0.0 3.0 0.00 0.00 0.00 73 1017.0
20260901151544 85 0 0.0 1.0 0.00 0.00 0.00 73 1017.4
20260901151333 85 280 0.0 1.0 0.00 0.00 0.00 73 1016.9
20260901151024 85 0 0.0 3.0 0.00 0.00 0.00 73 1017.5
20260901150824 85 296 0.0 3.0 0.00 0.00 0.00 73 1016.9
20260901150531 84 0 0.0 3.0 0.00 0.00 0.00 74 1017.4
20260901150318 85 296 0.0 3.0 0.00 0.00 0.00 75 1016.9
20260901150043 84 0 0.0 1.0 0.00 0.00 0.00 76 1017.4
20260901145833 85 260 0.0 1.0 0.00 0.00 0.00 78 1016.9
20260901145529 84 0 0.0 2.0 0.00 0.00 0.00 76 1017.4
20260901145327 85 318 0.0 2.0 0.00 0.00 0.00 77 1016.9
20260901145028 84 0 0.0 2.0 0.00 0.00 0.00 76 1017.4
20260901144823 84 319 0.0 2.0 0.00 0.00 0.00 76 1016.9
20260901144546 84 0 0.0 2.0 0.00 0.00 0.00 76 1017.3
20260901144318 84 17 0.0 2.0 0.00 0.00 0.00 76 1016.9
20260901144029 84 0 0.0 2.0 0.00 0.00 0.00 78 1017.4
20260901143833 84 11 0.0 2.0 0.00 0.00 0.00 77 1016.9
20260901143528 83 0 0.0 4.0 0.00 0.00 0.00 78 1017.3
20260901143326 84 275 0.0 4.0 0.00 0.00 0.00 78 1017.0
20260901143111 83 0 0.0 4.0 0.00 0.00 0.00 77 1017.5
20260901142840 83 246 0.0 4.0 0.00 0.00 0.00 80 1017.0
20260901142527 82 0 0.0 4.0 0.00 0.00 0.00 80 1017.6
20260901142352 82 244 0.0 4.0 0.00 0.00 0.00 82 1017.0
20260901142026 81 0 0.0 1.0 0.00 0.00 0.00 82 1017.6
20260901141824 82 192 0.0 1.0 0.00 0.00 0.00 83 1017.0
20260901141546 81 0 0.0 1.0 0.00 0.00 0.00 82 1017.6
20260901141319 81 192 0.0 0.0 0.00 0.00 0.00 83 1017.1
20260901141028 80 0 0.0 2.0 0.00 0.00 0.00 83 1017.6
20260901140832 81 192 0.0 2.0 0.00 0.00 0.00 83 1017.0
20260901140528 80 0 0.0 2.0 0.00 0.00 0.00 83 1017.6
20260901140323 81 192 0.0 2.0 0.00 0.00 0.00 85 1017.0
20260901140048 80 0 0.0 0.0 0.00 0.00 0.00 83 1017.6
20260901135835 80 214 0.0 0.0 0.00 0.00 0.00 83 1017.0
20260901135525 79 0 0.0 0.0 0.00 0.00 0.00 84 1017.6
20260901135329 80 212 0.0 0.0 0.00 0.00 0.00 85 1017.0
20260901135028 79 0 0.0 1.0 0.00 0.00 0.00 86 1017.6
20260901134820 80 212 0.0 1.0 0.00 0.00 0.00 87 1017.0
20260901134543 79 0 0.0 1.0 0.00 0.00 0.00 86 1017.6
20260901134314 79 212 0.0 1.0 0.00 0.00 0.00 85 1017.0
20260901134026 79 0 0.0 0.0 0.00 0.00 0.00 86 1017.6
20260901133826 79 115 0.0 0.0 0.00 0.00 0.00 87 1017.0
20260901133523 78 0 0.0 0.0 0.00 0.00 0.00 87 1017.6
20260901133338 79 115 0.0 0.0 0.00 0.00 0.00 87 1017.0
20260901133045 78 0 0.0 0.0 0.00 0.00 0.00 87 1017.6
20260901132829 78 115 0.0 0.0 0.00 0.00 0.00 89 1017.0
20260901132526 77 0 0.0 0.0 0.00 0.00 0.00 90 1017.6
20260901132320 77 115 0.0 0.0 0.00 0.00 0.00 93 1017.1
20260901132028 77 0 0.0 0.0 0.00 0.00 0.00 92 1017.6
20260901131851 77 115 0.0 0.0 0.00 0.00 0.00 94 1017.0
20260901131547 76 0 0.0 0.0 0.00 0.00 0.00 94 1017.7
20260901131342 77 115 0.0 0.0 0.00 0.00 0.00 95 1017.1
20260901131027 76 0 0.0 0.0 0.00 0.00 0.00 95 1017.7
20260901130830 76 115 0.0 0.0 0.00 0.00 0.00 95 1017.2
20260901130524 76 0 0.0 0.0 0.00 0.00 0.00 95 1017.8
20260901130322 76 115 0.0 0.0 0.00 0.00 0.00 96 1017.3
20260901130043 75 0 0.0 0.0 0.00 0.00 0.00 97 1017.8
20260901125819 75 115 0.0 0.0 0.00 0.00 0.00 97 1017.2
20260901125526 75 0 0.0 0.0 0.00 0.00 0.00 97 1017.8
20260901125332 75 115 0.0 0.0 0.00 0.00 0.00 97 1017.3
20260901125023 74 0 0.0 0.0 0.00 0.00 0.00 97 1017.9
20260901124827 75 115 0.0 0.0 0.00 0.00 0.00 97 1017.4
20260901124549 74 0 0.0 0.0 0.00 0.00 0.00 97 1018.0
20260901124318 74 115 0.0 0.0 0.00 0.00 0.00 97 1017.4
20260901124024 74 0 0.0 0.0 0.00 0.00 0.00 97 1018.1
20260901123847 74 115 0.0 0.0 0.00 0.00 0.00 97 1017.5
20260901123525 74 0 0.0 0.0 0.00 0.00 0.00 97 1018.1
20260901123318 74 115 0.0 0.0 0.00 0.00 0.00 97 1017.5
20260901123051 73 0 0.0 0.0 0.00 0.00 0.00 97 1018.2
20260901122830 74 115 0.0 0.0 0.00 0.00 0.00 97 1017.6
20260901122525 73 0 0.0 0.0 0.00 0.00 0.00 97 1018.2
20260901122321 74 115 0.0 0.0 0.00 0.00 0.00 97 1017.6
20260901122025 73 0 0.0 0.0 0.00 0.00 0.00 97 1018.2
20260901121813 74 115 0.0 0.0 0.00 0.00 0.00 97 1017.6
20260901121545 73 0 0.0 0.0 0.00 0.00 0.00 97 1018.2
20260901121328 73 115 0.0 0.0 0.00 0.00 0.00 97 1017.5
20260901121027 73 0 0.0 0.0 0.00 0.00 0.00 97 1018.1
20260901120818 73 115 0.0 0.0 0.00 0.00 0.00 97 1017.5
20260901120523 72 0 0.0 0.0 0.00 0.00 0.00 97 1018.0
20260901120317 73 115 0.0 0.0 0.00 0.00 0.00 97 1017.4
20260901120050 72 0 0.0 0.0 0.00 0.00 0.00 96 1017.9
20260901115830 73 0.0 0.0 0.00 0.00 0.00 97 1017.3
20260901115524 72 0.0 0.0 0.00 0.00 0.00 96 1017.8
20260901115322 72 0.0 0.0 0.00 0.00 0.00 97 1017.2
20260901115025 72 0.0 0.0 0.00 0.00 0.00 96 1017.7
20260901114817 72 0.0 0.0 0.00 0.00 0.00 97 1017.1
20260901114547 72 0.0 0.0 0.00 0.00 0.00 96 1017.7
20260901114331 72 0.0 0.0 0.00 0.00 0.00 97 1017.1
20260901114025 72 0.0 0.0 0.00 0.00 0.00 96 1017.6
20260901113824 72 0.0 0.0 0.00 0.00 0.00 97 1017.1
20260901113525 72 0.0 0.0 0.00 0.00 0.00 96 1017.6
20260901113316 72 0.0 0.0 0.00 0.00 0.00 97 1017.0
20260901113053 72 0.0 0.0 0.00 0.00 0.00 96 1017.6
20260901112828 72 0.0 0.0 0.00 0.00 0.00 97 1017.0
20260901112525 72 0.0 0.0 0.00 0.00 0.00 97 1017.5
20260901112322 72 0.0 0.0 0.00 0.00 0.00 97 1016.9
20260901112025 72 0.0 0.0 0.00 0.00 0.00 97 1017.5
20260901111833 72 0.0 0.0 0.00 0.00 0.00 97 1017.0
20260901111553 71 0.0 0.0 0.00 0.00 0.00 96 1017.5
20260901111345 72 0.0 0.0 0.00 0.00 0.00 97 1016.9
20260901111026 71 0.0 0.0 0.00 0.00 0.00 96 1017.5
20260901110813 72 0.0 0.0 0.00 0.00 0.00 97 1017.0
20260901110524 71 0.0 0.0 0.00 0.00 0.00 96 1017.5
20260901110328 72 0.0 0.0 0.00 0.00 0.00 97 1017.0
20260901110045 71 0.0 0.0 0.00 0.00 0.00 96 1017.6
20260901105819 72 0.0 0.0 0.00 0.00 0.00 97 1017.0
20260901105525 71 0.0 0.0 0.00 0.00 0.00 96 1017.6
20260901105330 72 0.0 0.0 0.00 0.00 0.00 97 1017.0
20260901105026 71 0.0 0.0 0.00 0.00 0.00 96 1017.5
20260901104822 72 0.0 0.0 0.00 0.00 0.00 97 1016.9
20260901104543 71 0.0 0.0 0.00 0.00 0.00 96 1017.4
20260901104332 71 0.0 0.0 0.00 0.00 0.00 97 1016.9
20260901104025 71 0.0 0.0 0.00 0.00 0.00 96 1017.4
20260901103823 71 0.0 0.0 0.00 0.00 0.00 97 1016.9
20260901103525 71 0.0 0.0 0.00 0.00 0.00 96 1017.5
20260901103317 71 0.0 0.0 0.00 0.00 0.00 97 1016.9
20260901103052 71 0.0 0.0 0.00 0.00 0.00 96 1017.4
20260901102851 71 0.0 0.0 0.00 0.00 0.00 97 1016.8
20260901102527 71 0.0 0.0 0.00 0.00 0.00 96 1017.3
20260901102325 71 0.0 0.0 0.00 0.00 0.00 97 1016.8
20260901102026 71 0.0 0.0 0.00 0.00 0.00 96 1017.3
20260901101838 71 0.0 0.0 0.00 0.00 0.00 97 1016.7
20260901101548 71 0.0 0.0 0.00 0.00 0.00 96 1017.2
20260901101333 71 0.0 0.0 0.00 0.00 0.00 97 1016.7
20260901101024 71 0.0 0.0 0.00 0.00 0.00 96 1017.2
20260901100825 71 0.0 0.0 0.00 0.00 0.00 97 1016.7
20260901100528 71 0.0 0.0 0.00 0.00 0.00 96 1017.2
20260901100341 71 0.0 0.0 0.00 0.00 0.00 97 1016.7
20260901100049 71 0.0 0.0 0.00 0.00 0.00 96 1017.3
20260901095833 71 0.0 0.0 0.00 0.00 0.00 96 1016.7
20260901095525 71 0.0 0.0 0.00 0.00 0.00 96 1017.2
20260901095329 71 0.0 0.0 0.00 0.00 0.00 96 1016.6
20260901095028 71 0.0 0.0 0.00 0.00 0.00 96 1017.1
20260901094826 71 0.0 0.0 0.00 0.00 0.00 96 1016.7
20260901094543 71 0.0 0.0 0.00 0.00 0.00 96 1017.2
20260901094327 71 0.0 0.0 0.00 0.00 0.00 96 1016.8
20260901094027 71 0.0 0.0 0.00 0.00 0.00 96 1017.2
20260901093821 71 0.0 0.0 0.00 0.00 0.00 96 1016.7
20260901093524 71 0.0 0.0 0.00 0.00 0.00 96 1017.2
20260901093316 71 0.0 0.0 0.00 0.00 0.00 96 1016.6
20260901093050 71 0.0 0.0 0.00 0.00 0.00 96 1017.2
20260901092850 71 0.0 0.0 0.00 0.00 0.00 96 1016.6
20260901092533 71 0.0 0.0 0.00 0.00 0.00 96 1017.2
20260901092326 71 0.0 0.0 0.00 0.00 0.00 96 1016.7
20260901092025 71 0.0 0.0 0.00 0.00 0.00 96 1017.3
20260901091841 71 0.0 0.0 0.00 0.00 0.00 96 1016.8
20260901091543 71 0.0 0.0 0.00 0.00 0.00 96 1017.5
20260901091333 72 0.0 0.0 0.00 0.00 0.00 96 1017.0
20260901091027 71 0.0 0.0 0.00 0.00 0.00 96 1017.6
20260901090826 72 0.0 0.0 0.00 0.00 0.00 96 1017.0
20260901090525 71 0.0 0.0 0.00 0.00 0.00 96 1017.5
20260901090320 72 0.0 0.0 0.00 0.00 0.00 96 1017.0
20260901090043 71 0.0 0.0 0.00 0.00 0.00 96 1017.5
20260901085833 72 0.0 0.0 0.00 0.00 0.00 96 1017.0
20260901085524 71 0.0 0.0 0.00 0.00 0.00 95 1017.6
20260901085346 72 0.0 0.0 0.00 0.00 0.00 96 1017.0
20260901085024 71 0.0 0.0 0.00 0.00 0.00 95 1017.5
20260901084821 72 0.0 0.0 0.00 0.00 0.00 96 1016.9
20260901084543 71 0.0 0.0 0.00 0.00 0.00 95 1017.5
20260901084315 72 0.0 0.0 0.00 0.00 0.00 96 1016.9
20260901084025 71 0.0 0.0 0.00 0.00 0.00 95 1017.4
20260901083828 72 0.0 0.0 0.00 0.00 0.00 96 1016.9
20260901083527 71 0.0 0.0 0.00 0.00 0.00 95 1017.4
20260901083324 72 0.0 0.0 0.00 0.00 0.00 96 1016.8
20260901083048 71 0.0 0.0 0.00 0.00 0.00 95 1017.4
20260901082814 72 0.0 0.0 0.00 0.00 0.00 96 1016.9
20260901082528 71 0.0 0.0 0.00 0.00 0.00 96 1017.4
20260901082326 72 0.0 0.0 0.00 0.00 0.00 96 1016.9
20260901082025 72 0.0 0.0 0.00 0.00 0.00 95 1017.4
20260901081819 72 0.0 0.0 0.00 0.00 0.00 96 1016.9
20260901081543 72 0.0 0.0 0.00 0.00 0.00 96 1017.4
20260901081314 72 0.0 0.0 0.00 0.00 0.00 96 1016.9
20260901081025 72 0.0 0.0 0.00 0.00 0.00 95 1017.5
20260901080828 72 0.0 0.0 0.00 0.00 0.00 96 1016.9
20260901080525 72 0.0 0.0 0.00 0.00 0.00 96 1017.4
20260901080342 72 0.0 0.0 0.00 0.00 0.00 96 1016.9
20260901080046 72 0.0 0.0 0.00 0.00 0.00 95 1017.5
20260901075815 72 0.0 0.0 0.00 0.00 0.00 96 1016.9
20260901075525 72 0.0 0.0 0.00 0.00 0.00 95 1017.4
20260901075326 72 0.0 0.0 0.00 0.00 0.00 96 1016.9
20260901075025 72 0.0 0.0 0.00 0.00 0.00 96 1017.4
20260901074817 73 0.0 0.0 0.00 0.00 0.00 96 1016.9
20260901074545 72 0.0 0.0 0.00 0.00 0.00 95 1017.4
20260901074328 73 0.0 0.0 0.00 0.00 0.00 96 1016.9
20260901074023 72 0.0 0.0 0.00 0.00 0.00 95 1017.3
20260901073822 73 0.0 0.0 0.00 0.00 0.00 96 1016.9
20260901073526 72 0.0 0.0 0.00 0.00 0.00 96 1017.4
20260901073317 73 0.0 0.0 0.00 0.00 0.00 96 1016.9
20260901073047 72 0.0 0.0 0.00 0.00 0.00 96 1017.4
20260901072828 73 0.0 0.0 0.00 0.00 0.00 96 1017.0
20260901072524 72 0.0 0.0 0.00 0.00 0.00 96 1017.5
20260901072322 73 0.0 0.0 0.00 0.00 0.00 96 1017.0
20260901072027 72 0.0 0.0 0.00 0.00 0.00 96 1017.5
20260901071815 73 0.0 0.0 0.00 0.00 0.00 96 1017.0
20260901071545 72 0.0 0.0 0.00 0.00 0.00 96 1017.6
20260901071349 73 0.0 0.0 0.00 0.00 0.00 96 1017.1
20260901071027 72 0.0 0.0 0.00 0.00 0.00 96 1017.7
20260901070822 73 0.0 0.0 0.00 0.00 0.00 96 1017.1
20260901070528 72 0.0 0.0 0.00 0.00 0.00 96 1017.7
20260901070332 73 0.0 0.0 0.00 0.00 0.00 96 1017.2
20260901070049 72 0.0 0.0 0.00 0.00 0.00 96 1017.7
20260901065824 73 0.0 0.0 0.00 0.00 0.00 96 1017.2
20260901065528 72 0.0 0.0 0.00 0.00 0.00 96 1017.8
20260901065340 73 0.0 0.0 0.00 0.00 0.00 96 1017.3
20260901065028 72 0.0 0.0 0.00 0.00 0.00 96 1017.7
20260901064833 73 0.0 0.0 0.00 0.00 0.00 96 1017.3
20260901064549 72 0.0 0.0 0.00 0.00 0.00 96 1017.9
20260901064325 73 0.0 0.0 0.00 0.00 0.00 96 1017.3
20260901064031 72 0.0 0.0 0.00 0.00 0.00 96 1017.9
20260901063817 73 0.0 0.0 0.00 0.00 0.00 96 1017.4
20260901063525 72 0.0 0.0 0.00 0.00 0.00 95 1018.0
20260901063329 73 0.0 0.0 0.00 0.00 0.00 96 1017.4
20260901063100 72 0.0 0.0 0.00 0.00 0.00 96 1018.0
20260901062821 73 0.0 0.0 0.00 0.00 0.00 96 1017.4
20260901062524 72 0.0 0.0 0.00 0.00 0.00 95 1018.0
20260901062355 73 0.0 0.0 0.00 0.00 0.00 96 1017.5
20260901062026 72 0.0 0.0 0.00 0.00 0.00 95 1018.1
20260901061847 73 0.0 0.0 0.00 0.00 0.00 96 1017.5
20260901061557 72 0.0 0.0 0.00 0.00 0.00 95 1018.0
20260901061317 73 0.0 0.0 0.00 0.00 0.00 96 1017.5
20260901061028 72 0.0 0.0 0.00 0.00 0.00 95 1018.1
20260901060827 73 0.0 0.0 0.00 0.00 0.00 96 1017.6
20260901060528 72 0.0 0.0 0.00 0.00 0.00 95 1018.1
20260901060047 72 0.0 0.0 0.00 0.00 0.00 95 1018.0
20260901055827 73 0.0 0.0 0.00 0.00 0.00 96 1017.4
20260901055524 72 0.0 0.0 0.00 0.00 0.00 95 1018.0
20260901055339 73 0.0 0.0 0.00 0.00 0.00 96 1017.4
20260901055025 72 0.0 0.0 0.00 0.00 0.00 95 1018.1
20260901054829 73 0.0 0.0 0.00 0.00 0.00 95 1017.6
20260901054545 72 0.0 0.0 0.00 0.00 0.00 95 1018.2
20260901054325 73 0.0 0.0 0.00 0.00 0.00 95 1017.6
20260901054024 72 0.0 0.0 0.00 0.00 0.00 95 1018.3
20260901053815 72 0.0 0.0 0.00 0.00 0.00 95 1017.7
20260901053528 72 0.0 0.0 0.00 0.00 0.00 95 1018.4
20260901053327 72 0.0 0.0 0.00 0.00 0.00 95 1017.9
20260901053105 72 0.0 0.0 0.00 0.00 0.00 95 1018.4
20260901052819 72 0.0 0.0 0.00 0.00 0.00 95 1017.7
20260901052525 72 0.0 0.0 0.00 0.00 0.00 95 1018.3
20260901052334 72 0.0 0.0 0.00 0.00 0.00 95 1017.7
20260901052024 72 0.0 0.0 0.00 0.00 0.00 95 1018.4
20260901051825 73 0.0 0.0 0.00 0.00 0.00 95 1017.9
20260901051544 72 0.0 0.0 0.00 0.00 0.00 95 1018.5
20260901051319 73 0.0 0.0 0.00 0.00 0.00 95 1017.9
20260901051025 72 0.0 0.0 0.00 0.00 0.00 95 1018.4
20260901050830 73 0.0 0.0 0.00 0.00 0.00 95 1017.9
20260901050524 72 0.0 0.0 0.00 0.00 0.00 95 1018.4
20260901050324 73 0.0 0.0 0.00 0.00 0.00 95 1017.9
20260901050044 72 0.0 0.0 0.00 0.00 0.00 95 1018.5
20260901045820 73 0.0 0.0 0.00 0.00 0.00 95 1018.0
20260901045526 72 0.0 0.0 0.00 0.00 0.00 95 1018.6
20260901045319 73 0.0 0.0 0.00 0.00 0.00 95 1018.1
20260901045028 72 0.0 0.0 0.00 0.00 0.00 95 1018.5
20260901044831 73 0.0 0.0 0.00 0.00 0.00 95 1018.1
20260901044600 72 0.0 0.0 0.00 0.00 0.00 95 1018.5
20260901044349 73 0.0 0.0 0.00 0.00 0.00 95 1018.1
20260901044025 72 0.0 0.0 0.00 0.00 0.00 95 1018.6
20260901043819 73 0.0 0.0 0.00 0.00 0.00 95 1018.1
20260901043525 72 0.0 0.0 0.00 0.00 0.00 95 1018.6
20260901043313 73 0.0 0.0 0.00 0.00 0.00 95 1018.2
20260901043045 72 0.0 0.0 0.00 0.00 0.00 95 1018.6
20260901042829 73 0.0 0.0 0.00 0.00 0.00 95 1018.3
20260901042525 72 0.0 0.0 0.00 0.00 0.00 95 1018.7
20260901042322 73 0.0 0.0 0.00 0.00 0.00 95 1018.3
20260901042025 72 0.0 0.0 0.00 0.00 0.00 95 1018.7
20260901041836 73 0.0 0.0 0.00 0.00 0.00 95 1018.3
20260901041543 72 0.0 0.0 0.00 0.00 0.00 95 1018.8
20260901041330 73 0.0 0.0 0.00 0.00 0.00 95 1018.3
20260901041025 72 0.0 0.0 0.00 0.00 0.00 95 1018.8
20260901040822 73 0.0 0.0 0.00 0.00 0.00 95 1018.3
20260901040527 72 0.0 0.0 0.00 0.00 0.00 95 1018.7
20260901040314 73 0.0 0.0 0.00 0.00 0.00 95 1018.3
20260901040048 72 0.0 0.0 0.00 0.00 0.00 95 1018.8
20260901035827 73 0.0 0.0 0.00 0.00 0.00 95 1018.3
20260901035525 72 0.0 0.0 0.00 0.00 0.00 94 1018.7
20260901035319 73 0.0 0.0 0.00 0.00 0.00 95 1018.4
20260901035023 72 0.0 0.0 0.00 0.00 0.00 94 1018.8
20260901034830 73 0.0 0.0 0.00 0.00 0.00 95 1018.3
20260901034549 72 0.0 0.0 0.00 0.00 0.00 94 1018.8
20260901034343 73 0.0 0.0 0.00 0.00 0.00 95 1018.4
20260901034028 72 0.0 0.0 0.00 0.00 0.00 94 1018.9
20260901033833 73 0.0 0.0 0.00 0.00 0.00 95 1018.3
20260901033524 73 0.0 0.0 0.00 0.00 0.00 94 1018.8
20260901033326 73 0.0 0.0 0.00 0.00 0.00 95 1018.3
20260901033045 73 0.0 0.0 0.00 0.00 0.00 94 1018.7
20260901032817 73 0.0 0.0 0.00 0.00 0.00 94 1018.3
20260901032524 73 0.0 0.0 0.00 0.00 0.00 94 1018.8
20260901032329 73 0.0 0.0 0.00 0.00 0.00 94 1018.3
20260901032026 73 0.0 0.0 0.00 0.00 0.00 94 1018.8
20260901031821 73 0.0 0.0 0.00 0.00 0.00 94 1018.4
20260901031555 73 0.0 0.0 0.00 0.00 0.00 94 1018.9
20260901031313 73 0.0 0.0 0.00 0.00 0.00 94 1018.4
20260901031026 73 0.0 0.0 0.00 0.00 0.00 94 1019.0
20260901030826 73 0.0 0.0 0.00 0.00 0.00 94 1018.5
20260901030526 73 0.0 0.0 0.00 0.00 0.00 94 1019.0
20260901030342 73 0.0 0.0 0.00 0.00 0.00 94 1018.5
20260901030044 73 0.0 0.0 0.00 0.00 0.00 94 1019.0
20260901025835 73 0.0 0.0 0.00 0.00 0.00 94 1018.4
20260901025529 73 0.0 0.0 0.00 0.00 0.00 94 1018.9
20260901025329 73 0.0 0.0 0.00 0.00 0.00 94 1018.4
20260901025024 73 0.0 0.0 0.00 0.00 0.00 93 1018.9
20260901024824 73 0.0 0.0 0.00 0.00 0.00 94 1018.4
20260901024553 73 0.0 0.0 0.00 0.00 0.00 93 1018.9
20260901024341 74 0.0 0.0 0.00 0.00 0.00 94 1018.4
20260901024029 73 0.0 0.0 0.00 0.00 0.00 93 1018.9
20260901023828 74 0.0 0.0 0.00 0.00 0.00 94 1018.4
20260901023525 73 0.0 0.0 0.00 0.00 0.00 93 1018.9
20260901023316 74 0.0 0.0 0.00 0.00 0.00 94 1018.5
20260901023048 73 0.0 0.0 0.00 0.00 0.00 93 1018.9
20260901022816 74 0.0 0.0 0.00 0.00 0.00 94 1018.5
20260901022526 73 0.0 0.0 0.00 0.00 0.00 93 1019.0
20260901022328 74 0.0 0.0 0.00 0.00 0.00 93 1018.5
20260901022025 73 0.0 0.0 0.00 0.00 0.00 93 1018.9
20260901021823 74 0.0 0.0 0.00 0.00 0.00 94 1018.4
20260901021546 74 0.0 0.0 0.00 0.00 0.00 93 1018.8
20260901021329 74 0.0 0.0 0.00 0.00 0.00 93 1018.3
20260901021025 74 0.0 0.0 0.00 0.00 0.00 93 1018.7
20260901020816 74 0.0 0.0 0.00 0.00 0.00 93 1018.3
20260901020526 74 0.0 0.0 0.00 0.00 0.00 93 1018.7
20260901020324 74 0.0 0.0 0.00 0.00 0.00 93 1018.2
20260901020108 74 0.0 0.0 0.00 0.00 0.00 93 1018.7
20260901015832 74 0.0 0.0 0.00 0.00 0.00 93 1018.3
20260901015524 74 0.0 0.0 0.00 0.00 0.00 93 1018.7
20260901015321 74 0.0 0.0 0.00 0.00 0.00 93 1018.3
20260901015026 74 0.0 0.0 0.00 0.00 0.00 92 1018.7
20260901014830 75 0.0 0.0 0.00 0.00 0.00 93 1018.3
20260901014550 74 0.0 0.0 0.00 0.00 0.00 92 1018.8
20260901014322 75 0.0 0.0 0.00 0.00 0.00 93 1018.4
20260901014024 74 0.0 0.0 0.00 0.00 0.00 92 1018.9
20260901013830 75 0.0 0.0 0.00 0.00 0.00 93 1018.4
20260901013526 74 0.0 0.0 0.00 0.00 0.00 92 1018.8
20260901013321 75 0.0 0.0 0.00 0.00 0.00 93 1018.3
20260901013042 75 0.0 0.0 0.00 0.00 0.00 92 1018.8
20260901012813 75 0.0 0.0 0.00 0.00 0.00 92 1018.2
20260901012527 75 0.0 0.0 0.00 0.00 0.00 92 1018.7
20260901012328 75 0.0 0.0 0.00 0.00 0.00 92 1018.2
20260901012028 75 0.0 0.0 0.00 0.00 0.00 92 1018.7
20260901011822 75 0.0 0.0 0.00 0.00 0.00 92 1018.2
20260901011552 75 0.0 0.0 0.00 0.00 0.00 92 1018.7
20260901011317 75 0.0 0.0 0.00 0.00 0.00 92 1018.2
20260901011025 75 0.0 0.0 0.00 0.00 0.00 91 1018.6
20260901010830 76 0.0 0.0 0.00 0.00 0.00 92 1018.2
20260901010527 75 0.0 0.0 0.00 0.00 0.00 91 1018.7
20260901010321 76 0.0 0.0 0.00 0.00 0.00 92 1018.2
20260901010052 75 0.0 0.0 0.00 0.00 0.00 91 1018.7
20260901005854 76 0.0 0.0 0.00 0.04 0.00 92 1018.1
20260901005523 76 0.0 0.0 0.00 0.04 0.00 91 1018.6
20260901005325 76 0.0 0.0 0.00 0.04 0.00 91 1018.1
20260901005024 76 0.0 0.0 0.00 0.04 0.00 91 1018.4
20260901004819 76 0.0 0.0 0.00 0.04 0.00 91 1017.9
20260901004556 76 0.0 0.0 0.00 0.04 0.00 90 1018.5
20260901004331 77 0.0 0.0 0.00 0.04 0.00 91 1017.9
20260901004025 76 0.0 0.0 0.00 0.04 0.00 90 1018.4
20260901003823 77 0.0 0.0 0.00 0.04 0.00 91 1017.9
20260901003525 76 0.0 0.0 0.00 0.04 0.00 90 1018.5
20260901003314 77 0.0 0.0 0.00 0.04 0.00 90 1017.9
20260901003046 76 0.0 0.0 0.00 0.04 0.00 90 1018.5
20260901002825 77 0.0 0.0 0.00 0.04 0.00 90 1017.9
20260901002524 77 0.0 0.0 0.00 0.04 0.00 90 1018.4
20260901002337 77 0.0 0.0 0.00 0.04 0.00 90 1017.8
20260901002025 77 0.0 0.0 0.00 0.04 0.00 89 1018.3
20260901001815 77 0.0 0.0 0.00 0.04 0.00 90 1017.7
20260901001553 77 0.0 0.0 0.00 0.04 0.00 89 1018.3
20260901001345 78 0.0 0.0 0.00 0.04 0.00 89 1017.7
20260901001026 77 0.0 0.0 0.00 0.04 0.00 88 1018.3
20260901000822 78 0.0 0.0 0.00 0.04 0.00 88 1017.7
20260901000524 78 0.0 0.0 0.00 0.04 0.00 88 1018.3
20260901000316 78 0.0 0.0 0.00 0.04 0.00 88 1017.7
20260831235829 78 0.0 0.0 0.00 0.12 0.00 88 1017.7
20260831235525 78 0.0 0.0 0.00 0.12 0.00 87 1018.3
20260831235344 79 0.0 0.0 0.00 0.12 0.00 88 1017.7
20260831235026 78 0.0 0.0 0.00 0.12 0.00 87 1018.2
20260831234815 79 0.0 0.0 0.00 0.12 0.00 87 1017.7
20260831234555 79 0.0 0.0 0.00 0.12 0.00 87 1018.3
20260831234332 79 0.0 0.0 0.00 0.12 0.00 87 1017.7
20260831234026 79 0.0 0.0 0.00 0.12 0.00 87 1018.2
20260831233825 80 0.0 0.0 0.00 0.12 0.00 88 1017.6
20260831233527 79 0.0 0.0 0.00 0.12 0.00 87 1018.2
20260831233337 80 0.0 0.0 0.00 0.12 0.00 88 1017.6
20260831233045 79 0.0 0.0 0.00 0.12 0.00 87 1018.2
20260831232525 79 0 0.0 0.0 0.00 0.12 0.00 87 1018.2
20260831232314 80 115 0.0 0.0 0.00 0.12 0.00 87 1017.7
20260831232029 80 0 0.0 0.0 0.00 0.12 0.00 86 1018.3
20260831231831 80 115 0.0 0.0 0.00 0.12 0.00 86 1017.8
20260831231549 80 0 0.0 0.0 0.00 0.12 0.00 86 1018.3
20260831231322 80 115 0.0 0.0 0.00 0.12 0.00 86 1017.7
20260831231027 80 0 0.0 0.0 0.00 0.12 0.00 86 1018.3
20260831230814 80 115 0.0 0.0 0.00 0.12 0.00 87 1017.7
20260831230524 80 0 0.0 0.0 0.00 0.12 0.00 86 1018.3
20260831230351 80 115 0.0 0.0 0.00 0.12 0.00 87 1017.8
20260831230049 80 0 0.0 0.0 0.00 0.12 0.00 85 1018.4
20260831225823 81 115 0.0 0.0 0.00 0.12 0.00 86 1017.8
20260831225529 80 0 0.0 0.0 0.00 0.12 0.00 85 1018.5
20260831225316 81 115 0.0 0.0 0.00 0.12 0.00 85 1017.9
20260831225028 80 0 0.0 0.0 0.00 0.12 0.00 85 1018.5
20260831224829 81 115 0.0 0.0 0.00 0.12 0.00 86 1018.0
20260831224546 80 0 0.0 0.0 0.00 0.12 0.00 85 1018.6
20260831224324 81 115 0.0 0.0 0.00 0.12 0.00 85 1018.0
20260831224025 81 0 0.0 0.0 0.00 0.12 0.00 85 1018.6
20260831223820 81 115 0.0 0.0 0.00 0.12 0.00 85 1018.1
20260831223526 81 0 0.0 0.0 0.00 0.12 0.00 85 1018.7
20260831223317 81 115 0.0 0.0 0.00 0.12 0.00 86 1018.2
20260831223053 81 0 0.0 0.0 0.00 0.12 0.00 85 1018.9
20260831222832 81 115 0.0 0.0 0.00 0.12 0.00 84 1018.3
20260831222530 81 0 0.0 0.0 0.00 0.12 0.00 85 1018.8
20260831222325 81 115 0.0 0.0 0.00 0.12 0.00 84 1018.3
20260831222024 81 0 0.0 0.0 0.00 0.12 0.00 83 1018.9
20260831221818 81 115 0.0 0.0 0.00 0.12 0.00 84 1018.4
20260831221542 81 0 0.0 0.0 0.00 0.12 0.00 83 1018.9
20260831221315 81 115 0.0 0.0 0.00 0.12 0.00 83 1018.4
20260831221028 81 0 0.0 0.0 0.00 0.12 0.00 83 1018.9
20260831220829 82 115 0.0 0.0 0.00 0.12 0.00 84 1018.5
20260831220525 81 0 0.0 0.0 0.00 0.12 0.00 84 1019.0
20260831220324 82 115 0.0 0.0 0.00 0.12 0.00 83 1018.4
20260831220050 81 0 0.0 0.0 0.00 0.12 0.00 84 1018.9
20260831215821 82 115 0.0 0.0 0.00 0.12 0.00 84 1018.4
20260831215527 81 0 0.0 0.0 0.00 0.12 0.00 83 1018.9
20260831215314 82 115 0.0 0.0 0.00 0.12 0.00 83 1018.4
20260831215025 81 0 0.0 0.0 0.00 0.12 0.00 83 1018.8
20260831214831 82 115 0.0 0.0 0.00 0.12 0.00 83 1018.3
20260831214545 81 0 0.0 0.0 0.00 0.12 0.00 83 1018.7
20260831214325 82 115 0.0 0.0 0.00 0.12 0.00 82 1018.3
20260831214024 81 0 0.0 0.0 0.00 0.12 0.00 82 1018.8
20260831213814 82 115 0.0 0.0 0.00 0.12 0.00 83 1018.4
20260831213529 81 0 0.0 0.0 0.00 0.12 0.00 82 1018.9
20260831213324 82 115 0.0 0.0 0.00 0.12 0.00 82 1018.4
20260831213043 81 0 0.0 0.0 0.00 0.12 0.00 81 1018.9
20260831212830 82 115 0.0 0.0 0.00 0.12 0.00 82 1018.4
20260831212525 82 0 0.0 0.0 0.00 0.12 0.00 81 1018.8
20260831212317 82 115 0.0 0.0 0.00 0.12 0.00 82 1018.3
20260831212025 82 0 0.0 0.0 0.00 0.12 0.00 81 1018.8
20260831211827 82 115 0.0 0.0 0.00 0.12 0.00 81 1018.3
20260831211545 82 0 0.0 0.0 0.00 0.12 0.00 80 1018.8
20260831211320 82 115 0.0 0.0 0.00 0.12 0.00 80 1018.3
20260831211025 82 0 0.0 0.0 0.00 0.12 0.00 80 1018.8
20260831210831 82 115 0.0 0.0 0.00 0.12 0.00 80 1018.3
20260831210529 82 0 0.0 0.0 0.00 0.12 0.00 79 1018.8
20260831210044 82 0 0.0 0.0 0.00 0.12 0.00 80 1018.8
20260831205529 82 0 0.0 0.0 0.00 0.12 0.00 79 1018.9
20260831205025 82 0 0.0 0.0 0.00 0.12 0.00 79 1018.9
20260831204544 82 0 0.0 0.0 0.00 0.12 0.00 81 1018.9
20260831204029 82 0 0.0 0.0 0.00 0.12 0.00 81 1018.9
20260831203846 83 115 0.0 0.0 0.00 0.12 0.00 81 1018.4
20260831203526 82 0 0.0 0.0 0.00 0.12 0.00 81 1018.8
20260831203346 83 115 0.0 0.0 0.00 0.12 0.00 81 1018.4
20260831203043 82 0 0.0 0.0 0.00 0.12 0.00 81 1018.9
20260831202844 83 115 0.0 0.0 0.00 0.12 0.00 80 1018.4
20260831202526 82 0 0.0 0.0 0.00 0.12 0.00 78 1018.9
20260831202339 82 115 0.0 0.0 0.00 0.12 0.00 77 1018.4
20260831202026 82 0 0.0 0.0 0.00 0.12 0.00 77 1019.0
20260831201835 82 115 0.0 0.0 0.00 0.12 0.00 78 1018.5
20260831201550 82 0 0.0 0.0 0.00 0.12 0.00 78 1019.0
20260831201328 82 115 0.0 0.0 0.00 0.12 0.00 79 1018.5
20260831201028 82 0 0.0 0.0 0.00 0.12 0.00 78 1019.0
20260831200828 82 115 0.0 0.0 0.00 0.12 0.00 78 1018.5
20260831200526 82 0 0.0 0.0 0.00 0.12 0.00 78 1019.0
20260831200411 82 115 0.0 0.0 0.00 0.12 0.00 79 1018.6
20260831200047 82 0 0.0 0.0 0.00 0.12 0.00 78 1019.0
20260831195847 82 115 0.0 0.0 0.00 0.12 0.00 78 1018.5
20260831195526 82 0 0.0 0.0 0.00 0.12 0.00 77 1018.9
20260831195403 82 115 0.0 0.0 0.00 0.12 0.00 77 1018.6
20260831195025 82 0 0.0 0.0 0.00 0.12 0.00 75 1019.0
20260831194841 82 115 0.0 0.0 0.00 0.12 0.00 77 1018.6
20260831194613 82 0 0.0 0.0 0.00 0.12 0.00 77 1019.0
20260831194358 82 115 0.0 0.0 0.00 0.12 0.00 76 1018.6
20260831194025 82 0 0.0 0.0 0.00 0.12 0.00 76 1019.0
20260831193836 82 115 0.0 0.0 0.00 0.12 0.00 77 1018.5
20260831193528 82 0 0.0 0.0 0.00 0.12 0.00 77 1019.0
20260831193336 82 115 0.0 0.0 0.00 0.12 0.00 78 1018.6
20260831193043 82 0 0.0 0.0 0.00 0.12 0.00 80 1019.1
20260831192853 82 115 0.0 0.0 0.00 0.12 0.00 79 1018.7
20260831192524 82 0 0.0 0.0 0.00 0.12 0.00 78 1019.2
20260831192409 82 115 0.0 0.0 0.00 0.12 0.00 78 1018.8
20260831192025 82 0 0.0 0.0 0.00 0.12 0.00 79 1019.2
20260831191845 82 115 0.0 0.0 0.00 0.12 0.00 78 1018.8
20260831191549 82 0 0.0 0.0 0.00 0.12 0.00 77 1019.4
20260831191342 82 115 0.0 0.0 0.00 0.12 0.00 77 1018.9
20260831191025 82 0 0.0 0.0 0.00 0.12 0.00 77 1019.5
20260831190845 82 115 0.0 0.0 0.00 0.12 0.00 78 1019.0
20260831190525 82 0 0.0 0.0 0.00 0.12 0.00 78 1019.5
20260831190341 82 115 0.0 0.0 0.00 0.12 0.00 79 1019.0
20260831185844 82 115 0.0 0.0 0.00 0.12 0.00 78 1019.0
20260831185527 82 0 0.0 0.0 0.00 0.12 0.00 76 1019.5
20260831185404 82 115 0.0 0.0 0.00 0.12 0.00 78 1019.1
20260831185026 82 0 0.0 0.0 0.00 0.12 0.00 78 1019.6
20260831184839 82 115 0.0 0.0 0.00 0.12 0.00 79 1019.2
20260831184544 82 0 0.0 0.0 0.00 0.12 0.00 76 1019.6
20260831184334 82 115 0.0 0.0 0.00 0.12 0.00 76 1019.1
20260831184028 82 0 0.0 0.0 0.00 0.12 0.00 77 1019.6
20260831183854 82 115 0.0 0.0 0.00 0.12 0.00 77 1019.2
20260831183526 82 0 0.0 0.0 0.00 0.12 0.00 76 1019.6
20260831183350 82 115 0.0 0.0 0.00 0.12 0.00 76 1019.1
20260831183042 82 0 0.0 0.0 0.00 0.12 0.00 77 1019.5
20260831182907 82 114 0.0 0.0 0.00 0.12 0.00 78 1019.1
20260831182525 82 0 0.0 0.0 0.00 0.12 0.00 76 1019.6
20260831182342 82 114 0.0 0.0 0.00 0.12 0.00 76 1019.2
20260831182026 82 0 0.0 0.0 0.00 0.12 0.00 76 1019.6
20260831181838 82 114 0.0 0.0 0.00 0.12 0.00 76 1019.2
20260831181559 82 0 0.0 0.0 0.00 0.12 0.00 76 1019.7
20260831181335 82 114 0.0 0.0 0.00 0.12 0.00 76 1019.2
20260831181025 82 0 0.0 0.0 0.00 0.12 0.00 75 1019.7
20260831180837 82 114 0.0 0.0 0.00 0.12 0.00 76 1019.2
20260831180525 82 0 0.0 0.0 0.00 0.12 0.00 76 1019.5
20260831180330 82 114 0.0 0.0 0.00 0.12 0.00 78 1019.1
20260831180045 82 0 0.0 0.0 0.00 0.12 0.00 75 1019.5
20260831175849 83 114 0.0 0.0 0.00 0.12 0.00 75 1019.1
20260831175528 82 0 0.0 0.0 0.00 0.12 0.00 75 1019.6
20260831175343 82 114 0.0 0.0 0.00 0.12 0.00 75 1019.2
20260831175029 82 0 0.0 0.0 0.00 0.12 0.00 74 1019.7
20260831174837 82 114 0.0 0.0 0.00 0.12 0.00 74 1019.3
20260831174546 82 0 0.0 0.0 0.00 0.12 0.00 77 1019.7
20260831174350 83 114 0.0 0.0 0.00 0.12 0.00 77 1019.3
20260831174028 82 0 0.0 0.0 0.00 0.12 0.00 74 1019.7
20260831173848 83 114 0.0 0.0 0.00 0.12 0.00 76 1019.3
20260831173525 82 0 0.0 0.0 0.00 0.12 0.00 75 1019.8
20260831173341 83 114 0.0 0.0 0.00 0.12 0.00 75 1019.4
20260831173044 83 0 0.0 0.0 0.00 0.12 0.00 75 1019.7
20260831172853 83 114 0.0 0.0 0.00 0.12 0.00 74 1019.3
20260831172524 83 0 0.0 0.0 0.00 0.12 0.00 73 1019.7
20260831172349 83 114 0.0 0.0 0.00 0.12 0.00 74 1019.4
20260831172025 82 0 0.0 0.0 0.00 0.12 0.00 73 1019.8
20260831171843 83 114 0.0 0.0 0.00 0.12 0.00 75 1019.4
20260831171543 82 0 0.0 0.0 0.00 0.12 0.00 77 1019.8
20260831171337 83 114 0.0 0.0 0.00 0.12 0.00 75 1019.6
20260831171028 82 0 0.0 2.0 0.00 0.12 0.00 75 1019.9